CW9414 Weather Reports


time (UTC)temp
C
wind
direction
speed
KPH
gust
KPH
rain 1hr
cm
rain 24hr
cm
rain mn
cm
humidity
%
barometer
mb
20260509011406 23 146 0.0 0.0 0.00 0.00 0.05 86 1005.2
20260509010408 23 146 0.0 0.0 0.00 0.00 0.05 86 1005.2
20260509005406 23 146 0.0 3.2 0.00 0.00 0.05 86 1004.9
20260509004406 23 146 0.0 1.6 0.00 0.00 0.05 85 1005.1
20260509003405 23 146 0.0 0.0 0.00 0.00 0.05 85 1005.1
20260509002405 23 146 0.0 1.6 0.00 0.00 0.05 85 1005.1
20260509001406 23 146 0.0 0.0 0.00 0.00 0.05 85 1005.1
20260509000410 23 146 0.0 0.0 0.00 0.00 0.05 85 1005.1
20260508235405 23 146 0.0 0.0 0.00 0.00 0.05 85 1005.0
20260508234406 23 146 0.0 1.6 0.00 0.00 0.05 85 1005.0
20260508233405 23 146 1.6 1.6 0.00 0.00 0.05 85 1005.0
20260508232405 23 146 0.0 0.0 0.00 0.00 0.05 84 1005.4
20260508231405 23 146 0.0 0.0 0.00 0.00 0.05 84 1005.5
20260508230405 23 146 0.0 3.2 0.00 0.00 0.05 83 1005.5
20260508225406 24 146 0.0 1.6 0.00 0.00 0.05 83 1005.4
20260508224405 24 146 0.0 3.2 0.00 0.00 0.05 83 1005.2
20260508223405 24 146 0.0 3.2 0.00 0.00 0.05 83 1005.2
20260508222405 24 146 0.0 4.8 0.00 0.00 0.05 83 1005.4
20260508221405 24 146 0.0 1.6 0.00 0.00 0.05 82 1005.5
20260508220405 24 146 0.0 0.0 0.00 0.00 0.05 82 1005.5
20260508215406 24 146 0.0 3.2 0.00 0.00 0.05 82 1005.5
20260508214406 25 146 0.0 0.0 0.00 0.00 0.05 82 1005.5
20260508213406 25 146 0.0 1.6 0.00 0.00 0.05 83 1005.5
20260508212405 24 146 0.0 3.2 0.00 0.00 0.05 83 1005.9
20260508211409 24 146 0.0 1.6 0.00 0.00 0.05 83 1006.0
20260508210408 24 146 0.0 6.4 0.00 0.00 0.05 83 1006.0
20260508205405 24 146 0.0 1.6 0.00 0.00 0.05 83 1006.1
20260508204405 24 146 3.2 3.2 0.00 0.00 0.05 83 1006.1
20260508203405 24 146 0.0 4.8 0.00 0.00 0.05 84 1006.1
20260508202406 23 146 0.0 4.8 0.00 0.00 0.05 85 1006.1
20260508201405 23 23 0.0 4.8 0.00 0.00 0.05 86 1006.2
20260508200405 23 23 0.0 1.6 0.00 0.00 0.05 86 1006.2
20260508195405 23 23 0.0 1.6 0.00 0.00 0.05 87 1006.7
20260508194409 22 23 0.0 1.6 0.00 0.00 0.05 87 1007.1
20260508193406 22 23 0.0 1.6 0.00 0.00 0.05 87 1007.1
20260508192406 22 23 0.0 1.6 0.00 0.00 0.05 86 1007.4
20260508191406 22 23 0.0 1.6 0.00 0.00 0.05 86 1007.4
20260508190406 22 23 0.0 1.6 0.00 0.00 0.05 86 1007.4
20260508185409 22 23 0.0 0.0 0.00 0.00 0.05 86 1007.1
20260508184408 22 23 0.0 3.2 0.00 0.00 0.05 86 1007.2
20260508183405 22 23 0.0 3.2 0.00 0.00 0.05 86 1007.2
20260508182405 22 23 0.0 3.2 0.00 0.00 0.05 86 1007.2
20260508181409 22 23 3.2 3.2 0.00 0.00 0.05 86 1007.6
20260508180405 22 23 0.0 1.6 0.00 0.00 0.05 85 1007.6
20260508175405 22 23 0.0 0.0 0.00 0.00 0.03 85 1008.1
20260508174405 22 23 0.0 0.0 0.00 0.00 0.03 84 1008.1
20260508173409 21 23 0.0 0.0 0.00 0.00 0.00 83 1008.1
20260508172405 21 23 0.0 1.6 0.00 0.00 0.00 83 1008.1
20260508171405 21 22 0.0 1.6 0.00 0.00 0.00 82 1008.2
20260508170405 21 22 1.6 1.6 0.00 0.00 0.00 82 1008.2
20260508165406 21 23 0.0 4.8 0.00 0.00 0.00 82 1008.5
20260508164405 21 23 0.0 1.6 0.00 0.00 0.00 82 1008.7
20260508163405 21 22 0.0 1.6 0.00 0.00 0.00 82 1008.7
20260508162405 21 22 1.6 3.2 0.00 0.00 0.00 82 1008.3
20260508161408 21 22 1.6 3.2 0.00 0.00 0.00 82 1008.8
20260508160405 21 22 0.0 1.6 0.00 0.00 0.00 82 1008.8
20260508155408 20 22 0.0 3.2 0.00 0.00 0.00 82 1009.1
20260508154405 20 22 0.0 3.2 0.00 0.00 0.00 82 1009.1
20260508153408 20 23 1.6 4.8 0.00 0.00 0.00 82 1009.0
20260508152405 20 22 1.6 11.3 0.00 0.00 0.00 83 1009.0
20260508151405 20 15 0.0 4.8 0.00 0.00 0.00 83 1009.2
20260508150405 21 15 0.0 8.0 0.00 0.00 0.00 83 1009.2
20260508145405 21 15 0.0 4.8 0.00 0.00 0.00 83 1009.2
20260508144405 21 15 0.0 3.2 0.00 0.00 0.00 83 1009.2
20260508143405 21 15 0.0 0.0 0.00 0.00 0.00 83 1009.2
20260508142405 21 15 0.0 4.8 0.00 0.00 0.00 83 1008.8
20260508141405 21 15 0.0 1.6 0.00 0.00 0.00 82 1009.2
20260508140405 21 15 0.0 3.2 0.00 0.00 0.00 82 1009.2
20260508135405 21 15 0.0 0.0 0.00 0.00 0.00 82 1008.9
20260508134405 21 15 0.0 1.6 0.00 0.00 0.00 82 1008.7
20260508133408 21 15 0.0 1.6 0.00 0.00 0.00 82 1008.7
20260508132405 21 15 0.0 1.6 0.00 0.00 0.00 82 1009.1
20260508131405 -17 0 0.0 0.0 0.00 0.00 0.00 100 1008.5
20260508130405 -17 0 0.0 0.0 0.00 0.00 0.00 100 1008.5
20260508125405 -17 0 0.0 0.0 0.00 0.00 0.00 100 1008.5
20260508124405 -17 0 0.0 0.0 0.00 0.00 0.00 100 1008.5
20260508123405 -17 0 0.0 0.0 0.00 0.00 0.00 100 1008.5
20260508122405 -17 0 0.0 0.0 0.00 0.00 0.00 100 1008.1
20260508121405 -17 0 0.0 0.0 0.00 0.00 0.00 100 1008.6
20260508120404 -17 0 0.0 0.0 0.00 0.00 0.00 100 1008.6
20260508115405 -17 0 0.0 0.0 0.00 0.00 0.00 100 1009.0
20260508114409 -17 0 0.0 0.0 0.00 0.00 0.00 100 1008.6
20260508113404 -17 0 0.0 0.0 0.00 0.00 0.00 100 1008.6
20260508112405 -17 0 0.0 0.0 0.00 0.00 0.00 100 1008.0
20260508111408 -17 0 0.0 0.0 0.00 0.00 0.00 100 1008.0
20260508110404 -17 0 0.0 0.0 0.00 0.00 0.00 100 1008.0
20260508105404 -17 0 0.0 0.0 0.00 0.00 0.00 100 1008.3
20260508104405 -17 0 0.0 0.0 0.00 0.00 0.00 100 1008.0
20260508103404 -17 0 0.0 0.0 0.00 0.00 0.00 100 1008.0
20260508102404 -17 0 0.0 0.0 0.00 0.00 0.00 100 1008.0
20260508101405 -17 0 0.0 0.0 0.00 0.00 0.00 100 1008.5
20260508100405 -17 0 0.0 0.0 0.00 0.00 0.00 100 1008.5
20260508095406 -17 0 0.0 0.0 0.00 0.00 0.00 100 1008.1
20260508094405 -17 0 0.0 0.0 0.00 0.00 0.00 100 1008.1
20260508093404 -17 0 0.0 0.0 0.00 0.00 0.00 100 1008.1
20260508092405 -17 0 0.0 0.0 0.00 0.00 0.00 100 1007.5
20260508091405 -17 0 0.0 0.0 0.00 0.00 0.00 100 1007.6
20260508090405 -17 0 0.0 0.0 0.00 0.00 0.00 100 1007.6
20260508085405 -17 0 0.0 0.0 0.00 0.00 0.00 100 1007.9
20260508084405 -17 0 0.0 0.0 0.00 0.00 0.00 100 1008.4
20260508083405 -17 0 0.0 0.0 0.00 0.00 0.00 100 1008.4
20260508082404 -17 0 0.0 0.0 0.00 0.00 0.00 100 1008.0
20260508081405 -17 0 0.0 0.0 0.00 0.00 0.00 100 1008.0
20260508080408 -17 0 0.0 0.0 0.00 0.00 0.00 100 1008.0
20260508075404 -17 0 0.0 0.0 0.00 0.00 0.00 100 1008.5
20260508074405 -17 0 0.0 0.0 0.00 0.00 0.00 100 1008.6
20260508073405 -17 0 0.0 0.0 0.00 0.00 0.00 100 1008.6
20260508072405 -17 0 0.0 0.0 0.00 0.00 0.00 100 1008.6
20260508071404 -17 0 0.0 0.0 0.00 0.00 0.00 100 1008.6
20260508070404 -17 0 0.0 0.0 0.00 0.00 0.00 100 1008.6
20260508065407 -17 0 0.0 0.0 0.00 0.00 0.00 100 1009.0
20260508064404 -17 0 0.0 0.0 0.00 0.00 0.00 100 1008.6
20260508063404 -17 0 0.0 0.0 0.00 0.00 0.00 100 1008.6
20260508062408 -17 0 0.0 0.0 0.00 0.00 0.00 100 1008.5
20260508061404 -17 0 0.0 0.0 0.00 0.00 0.00 100 1008.5
20260508060407 -17 0 0.0 0.0 0.00 0.00 0.00 100 1008.5
20260508055405 -17 0 0.0 0.0 0.00 0.00 0.00 100 1008.7
20260508054404 -17 0 0.0 0.0 0.00 0.00 0.00 100 1008.5
20260508053404 -17 0 0.0 0.0 0.00 0.00 0.00 100 1008.5
20260508052404 -17 0 0.0 0.0 0.00 0.00 0.00 100 1008.7
20260508051404 -17 0 0.0 0.0 0.00 0.00 0.00 100 1008.7
20260508050404 -17 0 0.0 0.0 0.00 0.00 0.00 100 1008.7
20260508045404 -17 0 0.0 0.0 0.00 0.00 0.00 100 1008.9
20260508044404 -17 0 0.0 0.0 0.00 0.00 0.00 100 1008.7
20260508043405 -17 0 0.0 0.0 0.00 0.00 0.00 100 1008.7
20260508042405 -17 0 0.0 0.0 0.00 0.00 0.00 100 1009.0
20260508041405 -17 0 0.0 0.0 0.00 0.00 0.00 100 1009.1
20260508040405 -17 0 0.0 0.0 0.00 0.00 0.00 100 1009.1
20260508035404 -17 0 0.0 0.0 0.00 0.00 0.00 100 1007.7
20260508034408 -17 0 0.0 0.0 0.00 0.00 0.00 100 1008.5
20260508033405 -17 0 0.0 0.0 0.00 0.00 0.00 100 1008.5
20260508032404 -17 0 0.0 0.0 0.00 0.00 0.00 100 1009.0
20260508031405 -17 0 0.0 0.0 0.00 0.00 0.00 100 1009.1
20260508030404 -17 0 0.0 0.0 0.00 0.00 0.00 100 1009.1
20260508025404 -17 0 0.0 0.0 0.00 0.00 0.00 100 1009.1
20260508024408 -17 0 0.0 0.0 0.00 0.00 0.00 100 1009.3
20260508023407 -17 0 0.0 0.0 0.00 0.00 0.00 100 1009.3
20260508022404 -17 0 0.0 0.0 0.00 0.00 0.00 100 1009.0
20260508021405 -17 0 0.0 0.0 0.00 0.00 0.00 100 1008.9
20260508020404 -17 0 0.0 0.0 0.00 0.00 0.00 100 1008.9
20260508015405 -17 0 0.0 0.0 0.00 0.00 0.00 100 1009.0
20260508014404 -17 0 0.0 0.0 0.00 0.00 0.00 100 1008.9
20260508013404 -17 0 0.0 0.0 0.00 0.00 0.00 100 1008.9
20260508012504 -17 0 0.0 0.0 0.00 0.00 0.00 100 1008.9